Regional Weather Roundup
Issued by NWS Sterling, VA

Home | Current Version | Previous Version | Graphics & Text | Print | Product List | Glossary On
Versions: 1 2 3 4 5 6 7 8 9 10 11 12 13 14 15 16 17 18 19 20 21 22 23 24 25 26 27
000
ASUS41 KLWX 211211
RWRLWX

REGIONAL WEATHER ROUNDUP
NATIONAL WEATHER SERVICE BALTIMORE MD/WASHINGTON DC
700 AM EST WED FEB 21 2018

Note: "FAIR" indicates few or no clouds below 12,000 feet
with no significant weather and/or obstructions to visibility.
 TC=TEMPERATURE CELSIUS

 * =Non NWS site. Station does not report precipitation (e.g. rain,
    snow, etc.), thunder, or fog.

DCZ001-MDZ009-015-VAZ040>042-051-053>054-211300-
WASHINGTON METRO

CITY           SKY/WX    TMP DP  RH WIND       PRES   REMARKS
WASHINGTON NAT FAIR      57  56  96 S13       30.34S
DULLES         FAIR      59  58  96 S10       30.33R
ANDREWS AFB    PTCLDY    61  60  96 SW12G20   30.33R
FT BELVOIR     FAIR      60  58  93 S5        30.34S
QUANTICO       FAIR      63  61  93 SW9G17    30.36S
COLLEGE PARK*  FAIR      61  58  91 S6        30.33S
LEESBURG*      FAIR      59  57  94 S9        30.32S
MANASSAS*      FAIR      59  57  93 S7        30.34S
GAITHERSBURG*  FAIR      62  58  86 SW7       30.33R

$$

MDZ006>007-011-014-211300-
BALTIMORE METRO

CITY           SKY/WX    TMP DP  RH WIND       PRES   REMARKS
BWI AIRPORT    FAIR      62  61  96 SW8       30.30F
MD SCIENCE CTR   N/A     53  53 100 MISG      30.32S
MARTIN STATE   FOG       52  52 100 CALM      30.34R VSB 1/4
ANNAPOLIS      FAIR      63  62  97 S6        30.33R
FORT MEADE*    FAIR      61  59  94 SW7       30.34S

$$

MDZ012-015-019>023-211300-
MARYLAND EASTERN SHORE

CITY           SKY/WX    TMP DP  RH WIND       PRES   REMARKS
OCEAN CITY     CLOUDY    58  58 100 SW10      30.41S
SALISBURY      CLOUDY    64  63  96 SW13      30.39S
BAY BRIDGE AP* FAIR      61  59  94 S10G20    30.34R
CAMBRIDGE*     CLOUDY    63  61  94 S8        30.37S
EASTON*        CLOUDY    63  61  94 SW12      30.39R

$$

MDZ017>025-211300-
SOUTHERN MARYLAND

CITY           SKY/WX    TMP DP  RH WIND       PRES   REMARKS
PATUXENT RIVER MOCLDY    65  63  93 S7        30.38R
ST INIGOES     MOCLDY    62  60  93 S10       30.37R
LEONARDTOWN*   CLOUDY    63  61  94 SW8       30.40R

$$

MDZ003>005-211300-
NORTH CENTRAL MARYLAND

CITY           SKY/WX    TMP DP  RH WIND       PRES   REMARKS
FREDERICK*     CLEAR     50  50 100 CALM      30.33S
HAGERSTOWN APT FAIR      60  53  77 S10       30.28S
WESTMINSTER*   FAIR      57  57 100 SW7       30.31S

$$

MDZ501>502-211300-
WESTERN MARYLAND

CITY           SKY/WX    TMP DP  RH WIND       PRES   REMARKS
OAKLAND*       FAIR      59  46  63 SW10G17   30.30R
CUMBERLAND*    FAIR      46  45  93 NW3       30.32S

$$

VAZ025>031-211300-
SHENANDOAH VALLEY

CITY           SKY/WX    TMP DP  RH WIND       PRES   REMARKS
WINCHESTER*    FAIR      57  52  82 SW10      30.32S
FRONT ROYAL*   FAIR      61  54  77 SW5       30.30S
LURAY*         FAIR      61  55  82 SW12      30.33S
NEW MARKET*    FAIR      53  52  95 SW7       30.33R
STAUNTON*      FAIR      47  47  97 CALM      30.37F
WAYNESBORO*    FAIR      53  53  99 CALM      30.36F

$$

WVZ021-048>050-054>055-211300-
EASTERN WEST VIRGINIA PANHANDLE

CITY           SKY/WX    TMP DP  RH WIND       PRES   REMARKS
MARTINSBURG    FAIR      58  52  80 S8        30.28R
PETERSBURG*    FAIR      54  47  80 W6        30.29S

$$

VAZ036>039-050-211300-
CENTRAL FOOTHILLS

CITY           SKY/WX    TMP DP  RH WIND       PRES   REMARKS
CHARLOTTESVILL FAIR      60  57  89 S12       30.36R
CULPEPER*      FAIR      61  57  87 S10G17    30.35S
ORANGE*        CLOUDY    59  55  88 CALM      30.36S
GORDONSVILLE*  CLOUDY    58  58 100 SW10      30.36S
WARRENTON*     FAIR      63  56  80 S9        30.34S

$$

VAZ055>057-211300-
NORTH AND CENTRAL PIEDMONT

CITY           SKY/WX    TMP DP  RH WIND       PRES   REMARKS
FREDERICKSBRG* CLOUDY    63  63 100 S10G17    30.36S
STAFFORD*      FAIR      63  63 100 SW7       30.40S

$$

NCZ024-NYZ072-PAZ021-071-VAZ022-071-211300-
OTHER REGIONAL OBSERVATIONS

CITY           SKY/WX    TMP DP  RH WIND       PRES   REMARKS
NEW YORK CITY  CLOUDY    62  58  86 W13G20    30.31S
PHILADELPHIA   CLOUDY    59  59 100 SW12      30.32S FOG
PITTSBURGH     MOCLDY    67  52  58 S12       30.18R
ROANOKE        CLOUDY    53  52  96 CALM      30.42R
RICHMOND       CLOUDY    64  62  93 SW9       30.42R
RALEIGH        CLOUDY    64  64 100 SW7       30.47R FOG

$$

ANZ530>537-211300-
MARINE OBSERVATIONS

STATION/POSITION TIME  TEMP    WIND        PRES
                       AIR SEA DIR/SP/G
                 (UTC) (F)     (DEG/KT/KT) (MB)
THOMAS PT LIGHT  1200   52 40  200/ 14/ 14   N/A
BALT KEY BRIDGE  1142   47     320/  1/  2 1026.8R
COVE POINT       1142   64     230/ 15/ 19 1028.9R
LEWISETTA        1142   64 48  230/ 13/ 19 1028.9R
SOLOMONS ISLAND  1142   61 42  220/  8/ 10 1028.4R
PINEY POINT      1142          240/ 16/ 17   N/A

$$





USA.gov is the U.S. government's official web portal to all federal, state and local government web resources and services.